Location: Malvern Link
(52.1333°N, 2.3000°W)
Time: 11:50:40
(UTC+00:00)

MOZHAYETS 4 - Pass Details

Date: 03 July 2022
Orbit: 660 x 679 km, 98.2° (Epoch: 11 August)

Event Time Altitude Azimuth Distance (km) Brightness Sun altitude
Exits shadow 02:05:39 - 158° (SSE) 2,692 10.4 -11.0°
Reaches altitude 10° 02:07:05 10° 157° (SSE) 2,108 9.9 -10.9°
Maximum altitude 02:11:41 75° 73° (ENE) 703 7.9 -10.6°
Drops below altitude 10° 02:16:18 10° 348° (NNW) 2,113 11.1 -10.2°
Sets 02:18:32 0° 347° (NNW) 3,028 11.9 -10.1°
